THORAD AGENA D DEB, 4209

Orbit data source: Space-Track

THORAD AGENA D DEB, 4209 is space debris in LEO originally from a launch on Tue, 30 Sep 1969 UTC launched from the Air Force Western Test Range (AFWTR). Debris objects in space refer to the collection of defunct objects orbiting the Earth. Examples of debris include non-operational satellites, rocket bodies, and fragments generated from explosions, collisions, or faulty payload assembly.

Loading next visibility...
Identifier
4209, 1969-082BY
Orbit
LEO
Country
Flag of USUS
Related business
Manufacturer
Unknown
Mission
Spacecraft
Bus & Motor
Unknown
Mass
Unknown
Launch date (UTC)
1969-09-30 (57 years ago)
Launch vehicle
Unknown
Launch site
Air Force Western Test Range (AFWTR)
Object type
Payload
Rocket body
Debris
Shape & HBR
Unknown shape, 0.7 m
Radar Cross Section
Medium (>0.1 m² and <1 m²)

Expand to show TLE details & history
Last TLE update: 2 days ago

TLE from 2 days ago
0 THORAD AGENA D DEB
1  4209U 69082BY  26171.34505728  .00000098  00000-0  93449-4 0  9991
2  4209  70.0308 203.1381 0042347 311.6574  48.0914 14.05062803904402
Epoch: 2026-06-20T08:16Z
TLE epoch observation values (Epoch: 2026-06-20T08:16:52.948Z)
Latitude
-0.00002°
Longitude
170.35646°
Altitude
858.191 km
Speed
7.434 km/s
True Right ascension
13h 32m 33s
True Declination
0° 00' 00"
Sunlit
Object was in daylight at epoch
Visualization orbit readout
Latitude
Unknown
Longitude
Unknown
Altitude
Unknown
Speed
Unknown
Apparent Right ascension
Unknown
Apparent Declination
Unknown
Sunlit
N/A
Visualization observer readout
Local Sidereal Time
07:07:42
Azimuth
Unknown
Elevation
Unknown
Doppler factor
Unknown
Orbital elements
Apogee altitude
905.06 km
Perigee altitude
843.636 km
Semi-major axis
7,252.485 km
Eccentricity
0.00423
Inclination
70.0308°
RAAN
203.1381°
Arg. of periapsis
311.6574°
True anomaly
48.45382°
Mean anomaly
48.0914°
Eccentric anomaly
48.27248°
Mean motion
3.51409 °/min
Orbital period
102.44 mins
BSTAR
0.000093449

Documentation

Showing up to 5 results
|